sat.trackr.live / text

‹ back to catalog

KUIPER-00234

NORAD 68581 · 2026-072J

PAYLOAD ACTIVE UNKNOWN

§ Identity

Operator
Country
US
Launch date
2026-04-04
Launch site
AFETR
Launch vehicle
Mass (kg)
RCS (m²)

External: N2YO · Heavens-Above · Gunter

§ Orbital elements

Epoch: 2026-09-19T21:46:00.771168Z

Period
97.30 min
Inclination
51.9009°
Eccentricity
0.0001014
Mean motion
14.79923562 rev/d
Perigee alt
628.9 km
Apogee alt
630.3 km
Semi-major
7,007.7 km
B*
2.2601e-5
RAAN
131.7864°
Arg perigee
98.9682°
Mean anomaly
261.1395°
Rev number
2,521

§ Raw data

KUIPER-002341 68581U 26072J   26262.90695337 -.00000049  00000+0  22601-4 0  99932 68581  51.9009 131.7864 0001014  98.9682 261.1395 14.79923562 25217

JSON: /api/v1/satellites/68581 · /tle

For live sub-satellite position, see the globe view (requires WebGL).

§ Visibility from observer

Set your observer location to see the next 7 days of passes ≥ 10°. The values pass through the URL so the page stays shareable.

No JS? Fill the form by hand. The geolocation button needs JavaScript.